Daleville, AL

6:06 AM CST on February 25, 2017 (GMT -0600)
Cairns Army Air Field

Weather History for KOZR - September, 2014

Change the Weather History Date:

Saturday, September 27, 2014

  Actual Average Record
Temperature  
Mean Temperature 73 °F -  
Max Temperature 79 °F 79 °F 90 °F (2007)
Min Temperature 67 °F 60 °F 44 °F (2001)
Cooling Degree Days 8    
Growing Degree Days 23 (Base 50)    
Moisture  
Dew Point 66 °F    
Average Humidity 77    
Maximum Humidity 92    
Minimum Humidity 65    
Precipitation  
Precipitation 0.00 in - - ()
Sea Level Pressure  
Sea Level Pressure 30.06 in    
Wind  
Wind Speed 8 mph (NE)    
Max Wind Speed 13 mph    
Max Gust Speed -    
Visibility 10 miles    
Events      
Averages and records for this station are not official NWS values.
T = Trace of Precipitation, MM = Missing Value Source: NWS Daily Summary

Daily Weather History Graph

Daily Weather History Graph

Search for Another Location

Airport or City:

Trip Planner

Search our weather history database for the weather conditions in past years. The results will help you decide how hot, cold, wet, or windy it might be!

Date:

Astronomy

Sep. 27, 2014 Rise Set
Actual Time 6:34 AM CDT 6:32 PM CDT
Civil Twilight 6:09 AM CDT 6:57 PM CDT
Nautical Twilight 5:41 AM CDT 7:25 PM CDT
Astronomical Twilight 5:13 AM CDT 7:53 PM CDT
Moon 9:35 AM CDT (9/27) 8:45 PM CDT (9/27)
Length of Visible Light 12h 47m
Length of Day
11h 58m
Waxing Crescent, 11% of the Moon is Illuminated
Sep 27
Waxing Crescent
Oct 1
First Quarter
Oct 8
Full
Oct 15
Last Quarter
Oct 23
New

Hourly Weather History & Observations

Time (CDT) Temp. Dew Point Humidity Pressure Visibility Wind Dir Wind Speed Gust Speed Precip Events Conditions
12:53 AM 68.0 °F 64.4 °F 88% 30.07 in 10.0 mi NE 8.1 mph - N/A   Mostly Cloudy
12:58 AM 67.6 °F 65.3 °F 92% 30.07 in 10.0 mi ENE 6.9 mph - N/A   Mostly Cloudy
1:58 AM 69.4 °F 65.5 °F 87% 30.08 in 10.0 mi ENE 8.1 mph - N/A   Overcast
2:58 AM 69.8 °F 65.8 °F 87% 30.07 in 10.0 mi East 10.4 mph - N/A   Overcast
3:53 AM 69.8 °F 64.4 °F 83% 30.06 in 10.0 mi NE 8.1 mph - N/A   Overcast
3:58 AM 69.6 °F 65.3 °F 86% 30.06 in 10.0 mi NE 6.9 mph - N/A   Overcast
4:43 AM 69.8 °F 64.4 °F 83% 30.06 in 10.0 mi NE 8.1 mph - N/A   Overcast
4:58 AM 69.3 °F 64.9 °F 86% 30.06 in 10.0 mi NE 8.1 mph - N/A   Overcast
5:20 AM 69.8 °F 64.4 °F 83% 30.05 in 10.0 mi NE 10.4 mph - N/A   Mostly Cloudy
5:58 AM 68.0 °F 64.8 °F 89% 30.06 in 10.0 mi NE 8.1 mph - N/A   Clear
6:48 AM 68.0 °F 64.4 °F 88% 30.08 in 10.0 mi NE 8.1 mph - N/A   Mostly Cloudy
6:58 AM 67.6 °F 64.6 °F 90% 30.08 in 10.0 mi NE 9.2 mph - N/A   Mostly Cloudy
7:58 AM 69.6 °F 64.8 °F 84% 30.09 in 10.0 mi ENE 10.4 mph - N/A   Overcast
8:58 AM 71.2 °F 64.9 °F 80% 30.10 in 10.0 mi ENE 9.2 mph - N/A   Overcast
9:48 AM 71.6 °F 64.4 °F 78% 30.10 in 10.0 mi ENE 10.4 mph - N/A   Overcast
9:58 AM 72.9 °F 64.9 °F 76% 30.11 in 10.0 mi East 9.2 mph - N/A   Overcast
10:58 AM 74.8 °F 65.3 °F 72% 30.11 in 10.0 mi ENE 10.4 mph - N/A   Overcast
11:58 AM 76.1 °F 66.0 °F 71% 30.10 in 10.0 mi NE 12.7 mph - N/A   Overcast
12:58 PM 75.9 °F 66.0 °F 71% 30.08 in 10.0 mi NE 10.4 mph - N/A   Overcast
1:58 PM 78.1 °F 66.2 °F 67% 30.08 in 10.0 mi NNE 6.9 mph - N/A   Mostly Cloudy
2:28 PM 78.8 °F 66.2 °F 65% 30.06 in 10.0 mi NNE 10.4 mph - N/A   Scattered Clouds
2:53 PM 78.8 °F 66.2 °F 65% 30.05 in 10.0 mi NE 9.2 mph - N/A   Mostly Cloudy
2:58 PM 78.6 °F 66.7 °F 67% 30.05 in 10.0 mi NNE 10.4 mph - N/A   Mostly Cloudy
3:18 PM 78.8 °F 66.2 °F 65% 30.04 in 10.0 mi North 8.1 mph - N/A   Mostly Cloudy
3:23 PM 78.8 °F 66.2 °F 65% 30.04 in 10.0 mi NNE 6.9 mph - N/A   Mostly Cloudy
3:33 PM 78.8 °F 66.2 °F 65% 30.04 in 10.0 mi NNE 6.9 mph - N/A   Mostly Cloudy
3:58 PM 79.5 °F 66.7 °F 65% 30.03 in 10.0 mi NE 8.1 mph - N/A   Mostly Cloudy
4:28 PM 78.8 °F 66.2 °F 65% 30.04 in 10.0 mi NNE 8.1 mph - N/A   Mostly Cloudy
4:43 PM 78.8 °F 66.2 °F 65% 30.03 in 10.0 mi NE 6.9 mph - N/A   Overcast
4:53 PM 78.8 °F 68.0 °F 69% 30.03 in 10.0 mi NNE 9.2 mph - N/A   Overcast
4:58 PM 78.6 °F 67.1 °F 68% 30.03 in 10.0 mi NE 6.9 mph - N/A   Overcast
5:03 PM 78.8 °F 66.2 °F 65% 30.03 in 10.0 mi NNE 8.1 mph - N/A   Overcast
5:18 PM 78.8 °F 68.0 °F 69% 30.03 in 10.0 mi NE 9.2 mph - N/A   Overcast
5:38 PM 78.8 °F 68.0 °F 69% 30.03 in 10.0 mi NE 9.2 mph - N/A   Overcast
5:58 PM 77.5 °F 67.5 °F 71% 30.04 in 10.0 mi ENE 9.2 mph - N/A   Overcast
6:58 PM 75.6 °F 67.3 °F 75% 30.04 in 10.0 mi NE 6.9 mph - N/A   Overcast
7:13 PM 75.2 °F 68.0 °F 78% 30.03 in 10.0 mi NE 8.1 mph - N/A   Mostly Cloudy
7:18 PM 75.2 °F 68.0 °F 78% 30.03 in 10.0 mi NE 8.1 mph - N/A   Scattered Clouds
7:33 PM 75.2 °F 68.0 °F 78% 30.04 in 10.0 mi ENE 11.5 mph - N/A   Mostly Cloudy
7:58 PM 74.3 °F 67.1 °F 78% 30.05 in 10.0 mi ENE 8.1 mph - N/A   Overcast
8:23 PM 73.4 °F 68.0 °F 83% 30.06 in 10.0 mi NE 5.8 mph - N/A   Scattered Clouds
8:38 PM 73.4 °F 66.2 °F 78% 30.06 in 10.0 mi ENE 5.8 mph - N/A   Mostly Cloudy
8:43 PM 73.4 °F 66.2 °F 78% 30.06 in 10.0 mi NE 4.6 mph - N/A   Scattered Clouds
8:58 PM 73.0 °F 67.3 °F 82% 30.07 in 10.0 mi NE 5.8 mph - N/A   Partly Cloudy
9:58 PM 71.8 °F 67.3 °F 86% 30.07 in 10.0 mi NE 5.8 mph - N/A   Mostly Cloudy
10:58 PM 71.1 °F 67.5 °F 88% 30.07 in 10.0 mi NNE 5.8 mph - N/A   Scattered Clouds
11:58 PM 70.5 °F 67.3 °F 89% 30.06 in 10.0 mi NE 5.8 mph - N/A   Overcast